OpenBCM V1.08-5-g2f4a (Linux)

Packet Radio Mailbox

IZ3LSV

[San Dona' di P. JN]

 Login: GUEST





  
WG3K   > KEPS     02.09.24 20:12l 387 Lines 18579 Bytes #70 (0) @ AMSAT
BID : ORB24246.1
Read: GUEST
Subj: 2Line Orbital Elements 24246.AMSAT
Path: IZ3LSV<I0OJJ<GB7CIP<VK2RZ<KC9UHI<KA1VSC<WG3K
Sent: 240902/1904Z 7818@WG3K.#SMD.MD.USA.NOAM LinBPQ6.0.24


QST de W1STR

AMSAT Orbital Elements for Amateur Satellites in TLE Format
From Orbital Analysis Office
New England Sci-Tech STEM Education Center
Natick, MA September 02, 2024
To all radio amateurs


These element sets describe the orbits of various satellites 
in use by the amateur radio community. For details see:
www.amsat.org/keplerian-elements-formats/

A daily update of element sets is available at:
www.amsat.org/tle/daily-bulletin.txt
or without bulletin text:
www.amsat.org/tle/dailytle.txt


AO-07
1 07530U 74089B   24245.60687007 -.00000021  00000-0  15949-3 0  9999
2 07530 101.9843 240.9839 0011903 299.7625 174.4967 12.53678727278612
UO-11
1 14781U 84021B   24245.46777888  .00005147  00000-0  57692-3 0  9997
2 14781  97.7121 212.5005 0008166 171.8370 188.2980 14.87227386159822
AO-27
1 22825U 93061C   24245.56660108  .00000501  00000-0  20938-3 0  9998
2 22825  98.7820 299.1157 0007885 208.7717 151.3031 14.30564314613532
FO-29
1 24278U 96046B   24245.49776294  .00000113  00000-0  15196-3 0  9993
2 24278  98.5792 170.1449 0350013 350.7923   8.6907 13.53204614384758
NOAA-15
1 25338U 98030A   24245.82372901  .00000660  00000-0  29042-3 0  9992
2 25338  98.5658 271.3417 0011503 100.3253 259.9225 14.26686900368365
GO-32
1 25397U 98043D   24245.54009576  .00000443  00000-0  21264-3 0  9992
2 25397  98.9298 213.4325 0000673 359.9517   0.1661 14.24106972358284
ISS
1 25544U 98067A   24245.63103825  .00030532  00000-0  55409-3 0  9994
2 25544  51.6424 296.6307 0011287 307.4384 187.4506 15.49251583470404
NO-44
1 26931U 01043C   24245.44333744  .00000700  00000-0  29511-3 0  9996
2 26931  67.0506 134.5370 0007726 269.5876  90.4340 14.31346577196866
SO-50
1 27607U 02058C   24245.73091020  .00004978  00000-0  67797-3 0  9993
2 27607  64.5576 346.1907 0025961  69.8512 290.5381 14.79525950167853
CO-55
1 27844U 03031E   24245.57380545  .00001286  00000-0  58540-3 0  9998
2 27844  98.6796 251.5508 0008446 285.4226  74.6019 14.23421486 98659
CO-57
1 27848U 03031J   24245.53849488  .00001101  00000-0  50989-3 0  9999
2 27848  98.6826 251.7166 0008484 303.8660  56.1710 14.22840069 98449
RS-22
1 27939U 03042A   24245.86446104  .00004990  00000-0  83103-3 0  9999
2 27939  98.2999  43.3384 0012002 173.5501 333.4415 14.70449469119541
NOAA-18
1 28654U 05018A   24245.81104929  .00000635  00000-0  36203-3 0  9991
2 28654  98.8705 322.1290 0013956 202.1075 157.9497 14.13306942994089
CO-58
1 28895U 05043F   24245.58105366  .00006875  00000-0  11955-2 0  9994
2 28895  98.2113  21.5863 0016333 115.3072 244.9826 14.68355663  5667
CO-65
1 32785U 08021C   24245.86766935  .00013881  00000-0  11734-2 0  9992
2 32785  97.7630 210.6444 0013660  74.5078 285.7652 14.98111437887026
AAUSAT2
1 32788U 08021F   24245.48851058  .00055937  00000-0  23830-2 0  9992
2 32788  97.5986 226.2211 0001536 195.8107 164.3081 15.22755768889912
CO-66
1 32791U 08021J   24245.46856907  .00024879  00000-0  16975-2 0  9995
2 32791  97.6966 216.3450 0007374  67.5524 292.6483 15.06174724887990
RS-30
1 32953U 08025A   24245.85000901  .00000042  00000-0  23444-3 0  9993
2 32953  82.5025  41.7878 0018655 298.5681  61.3521 12.43146934738659
PRISM
1 33493U 09002B   24245.39703264  .00061269  00000-0  24472-2 0  9999
2 33493  98.1970 299.8417 0009384 346.9874  13.1118 15.24867985850635
NOAA-19
1 33591U 09005A   24245.84424490  .00000541  00000-0  31390-3 0  9996
2 33591  99.0408 302.4324 0014761  77.8381 282.4443 14.13099027802456
SRMSAT
1 37841U 11058D   24245.62887597  .00000878  00000-0  33498-3 0  9990
2 37841  19.9728  54.4179 0011681 215.0927 216.2871 14.11187973665370
RS-40
1 38735U 12041C   24245.90844818  .00000061  00000-0  36727-3 0  9998
2 38735  82.4748 122.0624 0018338  52.5277 307.7467 12.42614424548808
ZACUBE-1
1 39417U 13066B   24245.61887514  .00013861  00000-0  13898-2 0  9997
2 39417  97.7389 199.9552 0046908 267.1896  92.3952 14.90625782582969
Delfi-N3xt
1 39428U 13066N   24245.51621748  .00016729  00000-0  20459-2 0  9990
2 39428  97.8331 161.9056 0097261 199.6405 160.1051 14.79944238577370
GOMX-1
1 39430U 13066Q   24245.77991677  .00007666  00000-0  12525-2 0  9997
2 39430  97.7206 115.5131 0138930   9.9263 350.4635 14.64857306574255
LO-74
1 39440U 13066AA  24245.58045668  .00014803  00000-0  16866-2 0  9990
2 39440  97.8154 187.6598 0069340  26.1367 334.3321 14.84500420579667
AO-73
1 39444U 13066AE  24245.62306633  .00017224  00000-0  15917-2 0  9997
2 39444  97.7242 203.2987 0044266 244.9983 114.6636 14.93893000581513
DTUSAT-2
1 40030U 14033W   24245.30851057  .00016385  00000-0  13163-2 0  9993
2 40030  98.0177 199.8705 0006911 269.6499  90.3931 15.00099946554105
EO-80
1 40032U 14033Y   24245.87547554  .00016294  00000-0  13079-2 0  9996
2 40032  98.0084 200.4440 0007125 236.5558 123.4983 15.00130888554685
XW-2C
1 40906U 15049H   24245.84515345  .00073445  00000-0  13247-2 0  9992
2 40906  97.4740 264.9770 0007461  49.6301 310.5600 15.49479640496315
XW-2D
1 40907U 15049J   24245.85052431  .00138128  00000-0  15674-2 0  9992
2 40907  97.4661 268.5484 0004419  51.1636 309.0015 15.61892426496610
LILACSAT-2
1 40908U 15049K   24245.84988633  .00020241  00000-0  73005-3 0  9993
2 40908  97.5244 255.2171 0014013  84.0089 276.2747 15.28465860495193
XW-2B
1 40911U 15049N   24245.86086747  .00128740  00000-0  15397-2 0  9996
2 40911  97.4641 268.5120 0004750  53.8855 306.2841 15.60549588496477
IO-86
1 40931U 15052B   24231.70395842  .00002296  00000-0  22250-3 0  9993
2 40931   5.9997 265.9807 0013402 250.6059 109.2619 14.78018769480834
ChubuSat-2
1 41338U 16012B   24245.75317463  .00013864  00000-0  83351-3 0  9997
2 41338  30.9998 257.5862 0010912 281.0386  78.9025 15.09627796469175
ChubuSat-3
1 41339U 16012C   24245.72886141  .00012303  00000-0  75405-3 0  9997
2 41339  31.0063 256.7461 0011003 285.0849  74.8572 15.08905426469144
Horyu-4
1 41340U 16012D   24245.56148221  .00033164  00000-0  15178-2 0  9999
2 41340  31.0002 196.9010 0007813  22.4010 337.6971 15.19324205469764
Lapan A3
1 41603U 16040E   24245.84955111  .00007487  00000-0  29238-3 0  9999
2 41603  97.1425 256.1374 0011848 179.5454 180.5798 15.26101510454912
Pratham
1 41783U 16059A   24245.62601871  .00002853  00000-0  53433-3 0  9991
2 41783  97.8357 261.3833 0033567 136.2228 224.1646 14.65189835423732
CAS-2T
1 41847U 16066G   24245.80046753  .00002621  00000-0  39065-3 0  9990
2 41847  98.4554 316.5302 0351513 306.7027  50.2339 14.41695771410534
CAS-4B
1 42759U 17034B   24245.82523282  .00039627  00000-0  12524-2 0  9994
2 42759  43.0156 152.3329 0011190 150.4275 209.7213 15.32088611399144
CAS-4A
1 42761U 17034D   24245.82019906  .00039011  00000-0  12267-2 0  9991
2 42761  43.0194 150.6528 0011061 163.7523 196.3687 15.32258136399159
Aalto 1
1 42775U 17036L   24245.29764800  .13343114  24078-5  23541-3 0  9999
2 42775  97.0675 277.5924 0011337 248.5174 111.4922 16.47090026401159
D-SAT
1 42794U 17036AF  24245.83950469  .00013897  00000-0  93173-3 0  9998
2 42794  97.4793 224.9901 0105450 247.2803 111.7249 15.02456871392250
TechnoSat
1 42829U 17042E   24245.44882684  .00010451  00000-0  89818-3 0  9998
2 42829  97.3875  62.2995 0012564 169.0865 191.0633 14.97540130388581
AO-91
1 43017U 17073E   24245.59804900  .00024020  00000-0  14188-2 0  9997
2 43017  97.5654 118.4274 0205778  38.3964 323.1700 14.95369625367071
TianYi 6
1 43158U 18008D   24245.70017688  .00218871  00000-0  22910-2 0  9995
2 43158  97.2504 295.2344 0007547 171.3508 188.7882 15.63695243366356
S-Net D
1 43186U 18014G   24245.30765164  .00012121  00000-0  83733-3 0  9999
2 43186  97.5815 145.8352 0012657 105.1143 255.1485 15.05831203359952
S-Net B
1 43187U 18014H   24245.44322846  .00012482  00000-0  86195-3 0  9996
2 43187  97.5822 145.9237 0013509 101.0337 259.2410 15.05826223359972
S-Net A
1 43188U 18014J   24245.30873698  .00012613  00000-0  87084-3 0  9992
2 43188  97.5827 145.9103 0013345 101.9632 258.3091 15.05833289359958
S-Net C
1 43189U 18014K   24245.24595552  .00012646  00000-0  87285-3 0  9995
2 43189  97.5847 145.8116 0015173  96.2164 264.0792 15.05821844358495
Ten-Koh
1 43677U 18084G   24245.43812953  .00008929  00000-0  78130-3 0  9990
2 43677  98.0711  41.2889 0014630 123.7697 236.4920 14.96890469318123
PO-101
1 43678U 18084H   24245.81653378  .00004744  00000-0  42994-3 0  9997
2 43678  98.0810  46.1124 0009799 131.8342 228.3717 14.95828386318376
QO-100
1 43700U 18090A   24245.23330622  .00000129  00000-0  00000-0 0  9992
2 43700   0.0158 111.5633 0002683  89.7683 249.3312  1.00273839 21112
MinXSS-2
1 43758U 18099A   24245.43394409  .00026437  00000-0  15517-2 0  9990
2 43758  97.5485 306.7147 0016613  61.0286 299.2608 15.11590430314299
AO-95
1 43770U 18099N   24245.61604978  .00020162  00000-0  13184-2 0  9996
2 43770  97.5398 301.8906 0014936 102.9700 257.3196 15.07724292314070
RANGE-B
1 43772U 18099Q   24245.60408148  .00030181  00000-0  17135-2 0  9990
2 43772  97.5176 305.6676 0004602  17.5446 342.5943 15.12867679314260
RANGE-A
1 43773U 18099R   24245.87148863  .00012279  00000-0  89925-3 0  9990
2 43773  97.4959 296.6685 0014711  76.9189 283.3678 15.03609310313951
MOVE-II
1 43780U 18099Y   24245.43235529  .00052831  00000-0  23916-2 0  9991
2 43780  97.5147 307.9101 0006440  83.3956 276.8013 15.20679920314495
SNUSat 2
1 43782U 18099AA  24245.61152606  .00016718  00000-0  11257-2 0  9996
2 43782  97.5077 300.6148 0015058  47.8972 312.3533 15.06679291314070
SnugLite
1 43784U 18099AC  24245.69927801  .00020070  00000-0  13058-2 0  9990
2 43784  97.4890 300.0023 0005130  63.7693 296.4062 15.07991953314169
ITASat 1
1 43786U 18099AE  24245.59037875  .00015190  00000-0  10469-2 0  9994
2 43786  97.5028 300.7399 0018125  93.5513 266.7788 15.05792211314066
